Погода во Фритауне

Сьерра-Леоне     8°25′49″N   13°10′41″W
темп.,
°C
ветер,
м/с
пор.,
м/с
влажн.,
%
обл.,
%
осадки,
мм/ч
давл.,
гПа
погр.,
м
23 июня, ср
ср2300:00+26зюз238497 1.5 1014314
03:00+25зюз348599 0.0 1011359
06:00+25зсз458499 0.1 1012426
09:00+26ссз4584100 2.2 1013389
12:00+25зюз3388100 7.4 1012236
15:00+27сз4678100 0.0 1011785
18:00+27зсз3479100 0.3 1010672
21:00+26з348483 0.0 1012365
24 июня, чт
чт2400:00+25з358795 0.9 1012211
03:00+25сз3486100 7.4 1011326
06:00+25з018595 9.9 1011121
09:00+27з117894 0.3 1012573
12:00+27з127697 0.8 1011532
15:00+28ююз347531 1.7 1010751
18:00+27ю4577100 2.8 1010687
21:00+25ююв5885100 2.2 1012581
25 июня, пт
пт2500:00+24ююв61091100 3.6 1013689
03:00+25ююв5889100 2.1 1012655
06:00+24юв4792100 7.5 1012461
09:00+25юв5787100 3.9 1014535
12:00+27ююв5677100 5.5 1014904
15:00+27ю557398 1.2 1012886
18:00+27ю457586 1.7 1012681
21:00+25ю4583100 0.7 1014491
26 июня, сб
сб2600:00+24в1291100 4.5 1014112
03:00+24юз3392100 2.6 1013241
06:00+24в2289100 2.6 1014157
09:00+25всв228422 0.0 1015345
12:00+28зсз327039 0.1 1014822
15:00+27з337515 0.1 1012496
18:00+27зюз557615 0.1 1012740
21:00+26зюз4582100 1.0 1013425
27 июня, вс
вс2700:00+25зсз2486100 6.6 1014191
03:00+23ссз3493100 16.1 1013346
06:00+24ссв4691100 17.3 1014465
09:00+24ссв228798 0.4 1014301
12:00+25ссв2185100 0.4 1015388
15:00+27зюз117497 0.1 1013587
18:00+25ююз3485100 2.5 1012219
21:00+25ююз3384100 4.3 1015350